Simultaneous Nadir Overpasses (SNOs) Predictions

Prediction of SNOs between LANDSAT-8 and METOP-B Satellite Orbit:

Table of predicted SNOs for the next 14.0 days since TLE Epoch: 1/5/2019
Index Date (LANDSAT-8) Time (LANDSAT-8) Lat,Lon (LANDSAT-8) SZA (LANDSAT-8 ) Date (METOP-B) Time (METOP-B) Lat,Lon (METOP-B) SZA (METOP-B ) Distance(km) Time Diff (sec)
1 01/05/2019 10:55:15 81.08, 55.33 105.43 01/05/2019 10:54:08 81.08, 55.34 105.41 0.34 67
2 01/05/2019 11:44:41 -81.10,-136.74 74.53 01/05/2019 11:44:47 -81.11,-136.56 74.51 3.17 6
3 01/08/2019 06:29:30 81.08, 121.70 105.05 01/08/2019 06:28:33 81.08, 121.62 105.03 1.48 57
4 01/08/2019 07:18:55 -81.12, -69.98 74.86 01/08/2019 07:19:11 -81.12, -69.87 74.84 1.83 16
5 01/11/2019 02:03:44 81.09,-171.60 104.66 01/11/2019 02:02:57 81.09,-171.75 104.63 2.74 47
6 01/11/2019 02:53:10 -81.12, -3.61 75.30 01/11/2019 02:53:36 -81.12, -3.57 75.28 0.69 26
7 01/13/2019 21:37:59 81.09,-105.29 104.16 01/13/2019 21:37:21 81.09,-105.13 104.17 2.95 38
8 01/13/2019 22:27:25 -81.11, 62.72 75.80 01/13/2019 22:28:01 -81.11, 62.71 75.78 0.25 36
9 01/16/2019 17:12:12 81.10, -38.66 103.66 01/16/2019 17:11:44 81.10, -38.53 103.66 2.26 28




NCC Satellite Simultaneous Nadir Overpasses (SNOs) Prediction Service
